Hourly Data Report for October 20, 2014

All times are specified in Local Standard Time (LST). Add 1 hour to adjust for Daylight Saving Time where and when it is observed.

QIKIQTARJUAQ A
NUNAVUT

67°32'48.000" N
64°01'54.000" W
5.50 m
2400577
YVM

Download Data

Hourly Data (October 2014)
Hourly Data Report for October 20, 2014
Temp Definition
°C
Dew Point Temp Definition
°C
Rel Hum Definition
%
Wind Dir Definition
10's deg

Wind Spd Definition
km/h
Visibility Definition
km
Stn Press Definition
kPa
Hmdx Definition


Wind Chill Definition


Weather Definition


TIME
00:00 Legend Double Dagger -4.3 -7.4 79 13 5 16.1 101.53   -6 LegendNANA
01:00 Legend Double Dagger -3.7 -7.0 78 15 4 16.1 101.55   -5 LegendNANA
02:00 Legend Double Dagger -3.6 -6.9 78 18 8 16.1 101.59   -7 LegendNANA
03:00 Legend Double Dagger -3.6 -6.4 81 14 5 16.1 101.60   -6 LegendNANA
04:00 Legend Double Dagger -3.4 -7.0 77 19 11 16.1 101.61   -8 LegendNANA
05:00 Legend Double Dagger -3.3 -7.1 75 19 18 16.1 101.60   -9 LegendNANA
06:00 Legend Double Dagger -3.2 -7.1 75 20 13 16.1 101.61   -8 LegendNANA
07:00 Legend Double Dagger -3.4 -6.9 77 20 15 16.1 101.60   -9 LegendNANA
08:00 Legend Double Dagger -3.2 -6.9 76 20 17 16.1 101.59   -9 LegendNANA
09:00 Legend Double Dagger -4.4 -8.0 76 16 9 16.1 101.54   -8 LegendNANA
10:00 Legend Double Dagger -4.2 -8.3 73 17 8 16.1 101.50   -8 LegendNANA
11:00 Legend Double Dagger -4.7 -8.6 75 16 11 16.1 101.47   -9 LegendNANA
12:00 Legend Double Dagger -4.4 -8.3 74 17 9 16.1 101.43   -8 LegendNANA
13:00 Legend Double Dagger -4.9 -8.7 75 19 9 16.1 101.40   -9 LegendNANA
14:00 Legend Double Dagger -5.4 -8.7 78 19 11 16.1 101.34   -10 LegendNANA
15:00 Legend Double Dagger -5.0 -8.7 76 19 11 16.1 101.31   -10 LegendNANA
16:00 Legend Double Dagger -6.0 -9.1 79 17 9 16.1 101.28   -10 LegendNANA
17:00 Legend Double Dagger -5.3 -8.7 77 19 11 16.1 101.21   -10 LegendNANA
18:00 Legend Double Dagger -5.2 -8.4 79 19 9 16.1 101.16   -9 LegendNANA
19:00 Legend Double Dagger -4.5 -8.4 74 19 5 16.1 101.08   -7 LegendNANA
20:00 Legend Double Dagger -5.0 -8.3 78 9 5 16.1 101.01   -7 LegendNANA
21:00 Legend Double Dagger -4.5 -7.5 79 19 5 16.1 100.93   -7 LegendNANA
22:00 Legend Double Dagger -4.5 -7.6 79 LegendMM 4 16.1 100.85   -6 LegendNANA
23:00 Legend Double Dagger -4.1 -7.4 78 24 11 16.1 100.78   -9 LegendNANA

Notes on Data Quality.

Legend

  • E = Estimated
  • M = Missing
  • NA = Not Available
  • ‡ = Partner data that is not subject to review by the National Climate Archives
Date modified: